Hourly Data Report for October 07, 2016

All times are specified in Local Standard Time (LST). Add 1 hour to adjust for Daylight Saving Time where and when it is observed.

FREDERICTON
NEW BRUNSWICK

45°52'08.000" N
66°32'14.000" W
20.70 m
8101505
71700
YFC

Download Data

Hourly Data (October 2016)
Hourly Data Report for October 7, 2016
Temp Definition
°C
Dew Point Temp Definition
°C
Rel Hum Definition
%
Wind Dir Definition
10's deg

Wind Spd Definition
km/h
Visibility Definition
km
Stn Press Definition
kPa
Hmdx Definition


Wind Chill Definition


Weather Definition


TIME
00:00 Legend Double Dagger 8.0 7.7 98 21 8 16.1 102.08     LegendNANA
01:00 Legend Double Dagger 7.4 7.0 97 20 8 16.1 102.08     LegendNANA
02:00 Legend Double Dagger 8.4 8.1 98 21 8 16.1 102.08     LegendNANA
03:00 Legend Double Dagger 7.1 6.8 98 22 4 14.5 102.12     LegendNANA
04:00 Legend Double Dagger 5.6 5.5 99   0 16.1 102.16     LegendNANA
05:00 Legend Double Dagger 3.8 3.5 98 25 5 12.9 102.17     LegendNANA
06:00 Legend Double Dagger 4.9 4.6 98 LegendMM 4 3.2 102.22     Fog
07:00 Legend Double Dagger 3.8 3.5 98 14 5 16.1 102.24     LegendNANA
08:00 Legend Double Dagger 7.6 7.3 98 LegendMM 4 16.1 102.29     LegendNANA
09:00 Legend Double Dagger 11.4 10.0 91 LegendMM 4 16.1 102.28     LegendNANA
10:00 Legend Double Dagger 15.4 12.0 80 4 5 16.1 102.26     LegendNANA
11:00 Legend Double Dagger 18.7 13.6 72 35 5 16.1 102.23     LegendNANA
12:00 Legend Double Dagger 21.2 13.2 60 LegendMM 4 16.1 102.17     LegendNANA
13:00 Legend Double Dagger 22.8 12.7 52 LegendMM 5 16.1 102.13 25   LegendNANA
14:00 Legend Double Dagger 24.1 8.9 38 LegendMM 4 16.1 102.07 25   LegendNANA
15:00 Legend Double Dagger 24.7 8.3 35 LegendMM 5 16.1 102.07 25   LegendNANA
16:00 Legend Double Dagger 24.6 8.8 36 27 8 16.1 102.05 25   LegendNANA
17:00 Legend Double Dagger 22.5 9.2 42 24 5 16.1 102.03     LegendNANA
18:00 Legend Double Dagger 17.2 13.0 76 23 5 16.1 102.02     LegendNANA
19:00 Legend Double Dagger 15.2 11.7 80 23 8 16.1 102.03     LegendNANA
20:00 Legend Double Dagger 13.2 11.2 87 20 11 16.1 102.04     LegendNANA
21:00 Legend Double Dagger 12.3 10.6 89 20 13 16.1 102.05     LegendNANA
22:00 Legend Double Dagger 12.4 10.2 86 21 9 16.1 102.06     LegendNANA
23:00 Legend Double Dagger 10.9 9.7 92 23 8 16.1 102.05     LegendNANA

Notes on Data Quality.

Legend

  • E = Estimated
  • M = Missing
  • NA = Not Available
  • ‡ = Partner data that is not subject to review by the National Climate Archives
Date modified: